Tracking 29892 objects as of 21-Nov-2024
HD Live streaming from Space Station
objects crossing your sky now

STARLINK-30321

Track STARLINK-30321 now!
10-day predictions
STARLINK-30321 is classified as:


NORAD ID: 57679
Int'l Code: 2023-124S
Perigee: 469.6 km
Apogee: 471.2 km
Inclination: 53.2 °
Period: 93.9 minutes
Semi major axis: 6841 km
RCS: Unknown
Launch date: August 22, 2023
Source: United States (US)
Launch site: AIR FORCE WESTERN TEST RANGE (AFWTR)
Your satellite tracking list
Your tracking list is empty




NASA's NSSDC Master Catalog

Two Line Element Set (TLE):
1 57679U 23124S   24326.16522300  .00000188  00000-0  16772-4 0  9996
2 57679  53.1622 247.3999 0001223  91.6774 268.4368 15.34215740 70590
Source of the keplerian elements: AFSPC